Hourly Data Report for January 19, 2022

ST. JOHN'S INTL A
NEWFOUNDLAND
Current Station Operator: NAVCAN

47°37'07.000" N
52°45'09.000" W
140.50 m
8403505
71801
YYT

Download Data

Hourly Data (January 2022)
Hourly Data Report for January 19, 2022
TIME
LST
Temp Definition
°C
Dew Point Definition
°C
Rel Hum Definition
%
Precip. Amount Definition
mm

Wind Dir Definition
10's deg

Wind Spd Definition
km/h
Visibility Definition
km
Stn Press Definition
kPa
Hmdx Definition


Wind Chill Definition


Weather Definition


00:30 4.0 3.1 94   25 23 24.1 97.82     LegendNANA
01:30 4.1 3.4 95   25 23 24.1 97.82     LegendNANA
02:30 3.5 2.6 94   25 21 24.1 97.86     Mostly Cloudy
03:30 3.1 2.1 93   22 26 8.1 97.93     Moderate Rain Showers, Fog
04:30 2.4 1.4 93   25 33 24.1 97.91     LegendNANA
05:30 1.6 0.5 92   24 27 24.1 97.91     Mostly Cloudy
06:30 1.4 -0.6 87   24 29 24.1 97.99     LegendNANA
07:30 0.6 -1.2 88   24 27 24.1 98.01     LegendNANA
08:30 0.6 -1.2 88   23 21 24.1 98.07     Cloudy
09:30 0.0 -2.2 85   26 42 24.1 98.19   -8 LegendNANA
10:30 -0.6 -4.5 75   27 37 24.1 98.31   -8 LegendNANA
11:30 -1.0 -5.9 70   27 44 24.1 98.34   -9 Mostly Cloudy
12:30 -0.8 -6.6 65   27 46 24.1 98.41   -9 LegendNANA
13:30 -1.4 -4.9 77   26 48 24.1 98.44   -10 LegendNANA
14:30 -1.4 -8.1 61   27 44 24.1 98.58   -10 Mainly Clear
15:30 -2.7 -7.5 69   28 40 24.1 98.77   -11 LegendNANA
16:30 -3.1 -8.2 68   29 36 24.1 98.95   -11 LegendNANA
17:30 -3.0 -7.7 70   28 48 24.1 99.03   -12 Mostly Cloudy
18:30 -3.8 -9.2 66   29 53 24.1 99.22   -14 LegendNANA
19:30 -4.4 -10.0 65   29 56 24.1 99.35   -15 LegendNANA
20:30 -4.6 -9.1 71   29 45 24.1 99.46   -14 Mainly Clear
21:30 -4.9 -10.7 64   29 59 24.1 99.55   -15 LegendNANA
22:30 -5.2 -10.6 66   28 49 24.1 99.67   -15 LegendNANA
23:30 -5.0 -9.0 73   29 51 24.1 99.81   -15 Mainly Clear

Notes on Data Quality.

Legend

  • E = Estimated
  • M = Missing
  • NA = Not Available*
  • [empty] = Indicates an unobserved value
Date modified: